Location: Be Tobo
(6.6442°N, 10.6239°W)
Time: 01:18:41
(UTC+00:00)

Milstar 3 Cent rocket - Pass Details

Date: 18 September 2020
Orbit: 708 x 5145 km, 28.3° (Epoch: 21 October)

Event Time Altitude Azimuth Distance (km) Brightness Sun altitude
Rises 19:19:57 0° 262° (W) 5,885 8.5 -10.6°
Reaches altitude 10° 19:25:18 10° 272° (W) 4,114 7.3 -12.0°
Maximum altitude 19:33:14 28° 328° (NNW) 1,980 4.5 -13.9°
Drops below altitude 10° 19:38:09 10° 28° (NNE) 2,483 4.4 -15.2°
Enters shadow 19:39:34 - 37° (NE) 2,909 4.7 -15.5°
